[[{"header":{"parameterUnit":"m.s-1","parameterCategory":2,"la1":30.2991,"la2":30.254,"lo1":-89.0895,"lo2":-89.0444,"dy":0.0017,"dx":0.0017,"nx":28,"ny":28,"refTime":"2023-11-07T03:00:00:Z","depth":"0","parameterNumber":2,"parameterNumberName":"U-component_of_CURRENTS"},"data":[0,0,0,0,0,0,0,0,0,0,0,0,0,0,0,0,0,0,0,0,0,0,0,0,0,0,0,0,0,0,0,0,0,0,0,0,0,0,0,0,0,0,0,0,0,0,0,0,0,0,0,0,0,0,0,0,0,0,0.1897,0.1897,0,0.1873,0.1872,0.1872,0.1862,0.1862,0.1862,0.1862,0.1805,0.1804,0.1802,0,0,0,0,0,0,0,0,0,0,0,0,0,0.1897,0.1897,0.1897,0.1897,0.1897,0.1873,0.1872,0.1872,0.1862,0.1862,0.1862,0.1863,0.1806,0.1804,0.1802,0,0,0,0,0,0,0,0,0,0,0,0,0,0.1886,0.1897,0.1897,0.189,0.1889,0.1873,0.1872,0.1872,0.1862,0.1862,0.1862,0.1863,0.1806,0.1804,0.1802,0.1781,0,0,0.1794,0.1793,0,0,0,0,0,0,0,0,0.1887,0.1886,0.1891,0.189,0.189,0.1872,0.1851,0.184,0.1862,0.1871,0.1862,0.1863,0.1825,0.1821,0.1815,0.1778,0.1776,0.1794,0.1792,0.1791,0.179,0,0,0,0,0,0,0,0.1888,0.1887,0.1886,0.1891,0.189,0.1875,0.1874,0.1849,0.1845,0.187,0.187,0.1869,0.1824,0.1817,0.1813,0.1775,0.1794,0.1791,0.179,0.1789,0.1688,0.1687,0,0,0,0,0,0,0.1895,0.1888,0.1887,0.1886,0.189,0.1875,0.1874,0.1876,0.1846,0.1843,0.1869,0.1868,0.1821,0.1816,0.1811,0.1801,0.1791,0.1789,0.1787,0.1689,0.1688,0.1687,0,0,0,0,0,0,0.1895,0.1895,0.1888,0.1887,0.1885,0.1875,0.1878,0.1876,0.187,0.1846,0.1841,0.1866,0.1821,0.1815,0.1786,0.1798,0.1787,0.1785,0.1691,0.1689,0.1687,0.177,0,0,0,0,0,0,0.1895,0.1895,0.1899,0.1888,0.1885,0.1872,0.1877,0.1875,0.187,0.1869,0.1842,0.1837,0.1821,0.179,0.1783,0.1794,0.1783,0.1692,0.169,0.1688,0.1768,0.1771,0.1773,0,0,0,0,0,0.1895,0.1896,0.1899,0.1899,0.1891,0.1872,0.1869,0.1862,0.187,0.186,0.1845,0.1838,0.1771,0.1787,0.178,0.179,0.1693,0.169,0.1688,0.1767,0.1771,0.1773,0,0,0,0,0,0,0.1895,0.1895,0.1898,0.1899,0.1885,0.1871,0.1864,0.1863,0.1844,0.1849,0.1828,0.1821,0.1802,0.177,0.1789,0.1747,0.1728,0.1724,0.1791,0.1794,0.1796,0.1816,0.1781,0,0,0,0,0,0.1898,0.1902,0.1893,0.1892,0.1887,0.1877,0.1871,0.1868,0.1852,0.1846,0.1828,0.1802,0.1784,0.177,0.1743,0.1721,0.1751,0.1715,0.1718,0.1721,0.1727,0.1798,0.181,0.1678,0.1678,0.1678,0,0,0.1899,0.19,0.1902,0.1893,0.1884,0.1879,0.1873,0.1865,0.1865,0.1841,0.1831,0.1813,0.1778,0.1761,0.1748,0.1739,0.1773,0.1717,0.1721,0.1725,0.1797,0.181,0.1823,0.1676,0.1676,0.1677,0,0,0.1903,0.1901,0.1906,0.1897,0.1888,0.188,0.1879,0.1866,0.1862,0.1848,0.1837,0.1826,0.1783,0.1773,0.1761,0.1751,0.1787,0.1734,0.1767,0.1836,0.1849,0.1861,0.1935,0.1952,0.1733,0.1734,0.1734,0,0.1903,0.1909,0.1901,0.1902,0.1894,0.1883,0.1881,0.1875,0.1856,0.1854,0.1848,0.182,0.1793,0.1792,0.179,0.1763,0.1814,0.1771,0.1847,0.1859,0.187,0.1942,0.1961,0.1737,0.1737,0.1737,0.1736,0,0.191,0.1914,0.1911,0.1913,0.1903,0.1894,0.1887,0.1881,0.1878,0.1877,0.1874,0.1852,0.1838,0.1827,0.1809,0.1858,0.1875,0.1855,0.186,0.189,0.1962,0.198,0.1743,0.1741,0.174,0.1739,0,0,0.1904,0.1916,0.1913,0.1916,0.1906,0.1896,0.1898,0.1891,0.1904,0.1895,0.1913,0.1891,0.1897,0.1881,0.1867,0.1918,0.2043,0.1926,0.1928,0.2033,0.2223,0.2218,0.2237,0.206,0.2063,0.2065,0.2251,0,0.1906,0.1915,0.1918,0.1916,0.1914,0.1907,0.1909,0.1907,0.1909,0.1923,0.1924,0.1928,0.1913,0.1918,0.1974,0.2006,0.2092,0.1995,0.2146,0.215,0.2171,0.2258,0.2254,0.2417,0.2269,0.2272,0.2275,0,0.1901,0.1909,0.191,0.192,0.1917,0.1915,0.1916,0.192,0.1939,0.1947,0.1971,0.1977,0.2021,0.2015,0.2146,0.2094,0.2177,0.222,0.2228,0.2206,0.2178,0.2354,0.2456,0.242,0.2303,0.23,0.2298,0,0.1882,0.1896,0.1897,0.1896,0.1908,0.1906,0.1908,0.1921,0.1922,0.1965,0.1985,0.2043,0.2073,0.2176,0.2251,0.2222,0.242,0.2383,0.247,0.247,0.2484,0.248,0.2597,0.2531,0.2531,0.253,0.253,0,0.1866,0.1861,0.1889,0.1885,0.1883,0.1897,0.1897,0.1913,0.1938,0.1948,0.1998,0.2028,0.2125,0.2226,0.2303,0.2446,0.2472,0.2509,0.2529,0.2508,0.2505,0.2482,0.2409,0.2537,0.2536,0.2534,0.2533,0,0.1822,0.1845,0.1846,0.1868,0.1869,0.1863,0.1867,0.1874,0.1915,0.1936,0.195,0.2042,0.2175,0.2288,0.2458,0.2511,0.2574,0.2693,0.2661,0.2673,0.2677,0.2606,0.2487,0.245,0.2817,0.2818,0.2819,0,0.1794,0.1792,0.1818,0.1812,0.1813,0.181,0.1806,0.1844,0.1849,0.1931,0.194,0.2083,0.2165,0.2417,0.2572,0.2756,0.2636,0.284,0.2766,0.2709,0.2647,0.2388,0.2347,0.2832,0.2833,0.2834,0.2835,0,0.1729,0.1743,0.1746,0.1748,0.1744,0.174,0.1742,0.1746,0.1797,0.1841,0.1915,0.1995,0.2258,0.2436,0.2682,0.2788,0.2681,0.286,0.2825,0.2695,0.2397,0.2361,0.2671,0.2842,0.2841,0.2841,0.284,0.284,0.167,0.1662,0.1677,0.1667,0.1669,0.1663,0.1645,0.1672,0.1695,0.1749,0.1854,0.1972,0.2244,0.2587,0.2743,0.2932,0.2743,0.2891,0.2827,0.258,0.2479,0.2798,0.2956,0.2956,0.2956,0.2956,0.2956,0,0.1587,0.1592,0.159,0.1588,0.1567,0.1592,0.1592,0.1578,0.1598,0.1689,0.1765,0.1993,0.2266,0.2546,0.2834,0.2874,0.2775,0.2837,0.2518,0.2499,0.2866,0.2808,0.2909,0.2909,0.2909,0.2909,0.2909,0.2909,0.1543,0.1518,0.1529,0.1484,0.148,0.1443,0.1436,0.1447,0.1495,0.1581,0.1684,0.1792,0.202,0.2394,0.2648,0.2712,0.254,0.2432,0.2379,0.2709,0.2708,0.2708,0.2641,0.2706,0.2705,0.1953,0.1948,0.1944]},{"header":{"parameterUnit":"m.s-1","parameterCategory":2,"la1":30.2991,"la2":30.254,"lo1":-89.0895,"lo2":-89.0444,"dy":0.0017,"dx":0.0017,"nx":28,"ny":28,"refTime":"2023-11-07T03:00:00:Z","depth":"0","parameterNumber":3,"parameterNumberName":"V-component_of_CURRENTS"},"data":[0,0,0,0,0,0,0,0,0,0,0,0,0,0,0,0,0,0,0,0,0,0,0,0,0,0,0,0,0,0,0,0,0,0,0,0,0,0,0,0,0,0,0,0,0,0,0,0,0,0,0,0,0,0,0,0,0,0,-0.0256,-0.0257,0,-0.0303,-0.0303,-0.0304,-0.0308,-0.0308,-0.0307,-0.0307,-0.0308,-0.0308,-0.0308,0,0,0,0,0,0,0,0,0,0,0,0,0,-0.0188,-0.0189,-0.0256,-0.0257,-0.0258,-0.0303,-0.0303,-0.0304,-0.0308,-0.0308,-0.0307,-0.0307,-0.0307,-0.0308,-0.0308,0,0,0,0,0,0,0,0,0,0,0,0,0,-0.0223,-0.0189,-0.0256,-0.0266,-0.0267,-0.0303,-0.0303,-0.0304,-0.0308,-0.0308,-0.0307,-0.0307,-0.0307,-0.0308,-0.0308,-0.0324,0,0,-0.031,-0.031,0,0,0,0,0,0,0,0,-0.0221,-0.0225,-0.0264,-0.0265,-0.0267,-0.03,-0.0279,-0.0309,-0.0308,-0.0292,-0.0307,-0.0306,-0.0302,-0.0303,-0.0312,-0.0324,-0.0324,-0.031,-0.0311,-0.0311,-0.0311,0,0,0,0,0,0,0,-0.0219,-0.0224,-0.0274,-0.0265,-0.0267,-0.0274,-0.0278,-0.0285,-0.0298,-0.0293,-0.0294,-0.0301,-0.0302,-0.0312,-0.0312,-0.0324,-0.031,-0.0311,-0.0311,-0.0311,-0.0369,-0.037,0,0,0,0,0,0,-0.0215,-0.0221,-0.0272,-0.0275,-0.0243,-0.0276,-0.028,-0.0289,-0.0299,-0.03,-0.0301,-0.0301,-0.0311,-0.0311,-0.0312,-0.0313,-0.0311,-0.0311,-0.0312,-0.0367,-0.0369,-0.037,0,0,0,0,0,0,-0.0213,-0.0219,-0.027,-0.025,-0.0257,-0.0277,-0.0287,-0.029,-0.03,-0.0306,-0.0306,-0.0308,-0.031,-0.0311,-0.0335,-0.0313,-0.0312,-0.0312,-0.0366,-0.0368,-0.037,-0.0326,0,0,0,0,0,0,-0.0211,-0.0218,-0.0219,-0.025,-0.0258,-0.0285,-0.0288,-0.0292,-0.0306,-0.0306,-0.0312,-0.0311,-0.031,-0.0334,-0.0335,-0.0314,-0.0313,-0.0365,-0.0367,-0.0369,-0.0326,-0.0326,-0.0326,0,0,0,0,0,-0.0209,-0.0212,-0.0219,-0.0225,-0.026,-0.0285,-0.029,-0.0302,-0.0307,-0.0309,-0.0329,-0.0311,-0.0348,-0.0336,-0.0337,-0.0315,-0.0364,-0.0366,-0.0369,-0.0326,-0.0326,-0.0326,0,0,0,0,0,0,-0.0188,-0.0214,-0.0222,-0.0235,-0.0256,-0.0286,-0.0292,-0.0305,-0.0324,-0.0323,-0.0331,-0.0332,-0.0346,-0.0351,-0.0337,-0.0345,-0.0351,-0.0354,-0.0318,-0.0318,-0.0318,-0.0271,-0.0313,0,0,0,0,0,-0.0184,-0.0187,-0.022,-0.0228,-0.0242,-0.0269,-0.0281,-0.0289,-0.0313,-0.032,-0.033,-0.0345,-0.036,-0.0356,-0.0374,-0.0375,-0.0351,-0.0365,-0.0365,-0.0365,-0.0331,-0.0305,-0.0297,-0.0379,-0.0379,-0.0379,0,0,-0.0176,-0.0192,-0.0193,-0.0223,-0.0243,-0.0247,-0.0274,-0.0291,-0.0286,-0.0317,-0.032,-0.035,-0.0368,-0.0373,-0.0377,-0.0369,-0.0333,-0.0368,-0.0367,-0.0333,-0.0306,-0.0298,-0.029,-0.0381,-0.038,-0.038,0,0,-0.0159,-0.0183,-0.0177,-0.0191,-0.0217,-0.0234,-0.0239,-0.0272,-0.0281,-0.0299,-0.0322,-0.0338,-0.0364,-0.036,-0.0364,-0.0378,-0.0346,-0.0394,-0.0333,-0.0308,-0.0299,-0.0292,-0.0252,-0.024,-0.0378,-0.0378,-0.0378,0,-0.0146,-0.0146,-0.0179,-0.0178,-0.0182,-0.0226,-0.0218,-0.0235,-0.0268,-0.0267,-0.0293,-0.0327,-0.0347,-0.0331,-0.0338,-0.0368,-0.0349,-0.0324,-0.0302,-0.0294,-0.0286,-0.0247,-0.0235,-0.0376,-0.0376,-0.0377,-0.0377,0,-0.0122,-0.012,-0.0122,-0.0127,-0.0139,-0.0143,-0.0171,-0.0183,-0.0207,-0.0215,-0.0227,-0.0267,-0.0275,-0.0294,-0.0316,-0.0278,-0.0281,-0.0313,-0.0287,-0.0274,-0.0236,-0.0224,-0.0374,-0.0374,-0.0375,-0.0375,0,0,-0.0099,-0.01,-0.01,-0.009,-0.011,-0.0119,-0.0116,-0.0121,-0.0106,-0.0142,-0.0117,-0.0159,-0.0179,-0.0186,-0.022,-0.0195,-0.014,-0.0223,-0.0222,-0.0154,-0.0067,-0.0088,-0.0077,-0.0168,-0.0165,-0.0164,-0.006,0,-0.0068,-0.0044,-0.0053,-0.0029,-0.0025,-0.0051,-0.0041,-0.0047,-0.0064,-0.0053,-0.0079,-0.0083,-0.0138,-0.0146,-0.0129,-0.0147,-0.0107,-0.0163,-0.0113,-0.011,-0.0107,-0.0064,-0.0003,0.0093,-0.0048,-0.0046,-0.0045,0,-0.0042,-0.0028,0.0004,0.0021,0.0021,0.0034,0.0043,0.0048,0.0055,0.0044,0.0045,0.0016,0.0036,-0.0023,0.0009,-0.0027,-0.0029,-0.0037,-0.0034,-0.005,-0.0108,0.0054,0.012,0.013,-0.0027,-0.0028,-0.0029,0,-0.0016,0.0009,0.004,0.0045,0.0058,0.0072,0.0078,0.0084,0.0095,0.0111,0.0125,0.0129,0.0133,0.0131,0.0094,0.0061,0.0138,0.0084,0.0076,0.0075,0.0142,0.0142,0.0254,0.0137,0.0137,0.0136,0.0136,0,0.0016,0.004,0.0057,0.0073,0.011,0.0108,0.0146,0.0147,0.0172,0.0204,0.018,0.0207,0.0171,0.0189,0.0156,0.0161,0.0187,0.0121,0.0109,0.0153,0.0153,0.0173,0.0147,0.014,0.0139,0.0139,0.0138,0,0.0039,0.0052,0.0086,0.0113,0.0122,0.0147,0.0177,0.0205,0.0223,0.0268,0.0276,0.0289,0.0311,0.0283,0.0291,0.0243,0.0238,0.0236,0.0295,0.0287,0.0261,0.0232,0.0241,0.0237,0.026,0.026,0.026,0,0.0058,0.0076,0.011,0.013,0.0146,0.0179,0.0202,0.0223,0.0252,0.0313,0.0342,0.0382,0.0413,0.0426,0.0369,0.035,0.0288,0.0364,0.0301,0.0304,0.0265,0.016,0.0149,0.0415,0.0416,0.0418,0.0419,0,0.0089,0.0097,0.0121,0.0158,0.0188,0.0224,0.0262,0.0292,0.0326,0.0376,0.0448,0.0489,0.0509,0.0527,0.0482,0.0446,0.0351,0.0384,0.0391,0.0412,0.0307,0.0284,0.0302,0.0429,0.0428,0.0427,0.0427,0.0426,0.0107,0.0127,0.0151,0.0187,0.022,0.0268,0.0306,0.0355,0.0418,0.0517,0.054,0.0661,0.0707,0.0663,0.0558,0.0501,0.0414,0.049,0.0464,0.0363,0.0333,0.0369,0.046,0.0459,0.0458,0.0458,0.0457,0,0.0132,0.0147,0.0179,0.0221,0.026,0.0276,0.0342,0.0395,0.0479,0.0608,0.0693,0.0924,0.0913,0.0863,0.0795,0.0656,0.0525,0.0585,0.0502,0.0493,0.057,0.0552,0.0663,0.0663,0.0663,0.0663,0.0663,0.0663,0.0147,0.0174,0.0186,0.0244,0.0276,0.0343,0.0388,0.0476,0.0583,0.0825,0.1027,0.1167,0.1354,0.1057,0.089,0.0799,0.0663,0.0562,0.05,0.0618,0.0607,0.0598,0.0577,0.0692,0.0692,0.0437,0.0436,0.0435]}],[{"header":{"parameterUnit":"m.s-1","parameterCategory":2,"la1":30.2991,"la2":30.254,"lo1":-89.0895,"lo2":-89.0444,"dy":0.0017,"dx":0.0017,"nx":28,"ny":28,"refTime":"2023-11-07T03:00:00:Z","depth":"2","parameterNumber":2,"parameterNumberName":"U-component_of_CURRENTS"},"data":[0,0,0,0,0,0,0,0,0,0,0,0,0,0,0,0,0,0,0,0,0,0,0,0,0,0,0,0,0,0,0,0,0,0,0,0,0,0,0,0,0,0,0,0,0,0,0,0,0,0,0,0,0,0,0,0,0,0,-0.0719,-0.0719,0,-0.0696,-0.0696,-0.0696,-0.0671,-0.0671,-0.0671,-0.067,-0.0643,-0.0643,-0.0643,0,0,0,0,0,0,0,0,0,0,0,0,0,-0.0767,-0.0766,-0.0719,-0.0719,-0.0719,-0.0696,-0.0696,-0.0696,-0.0672,-0.0671,-0.067,-0.067,-0.0644,-0.0643,-0.0643,0,0,0,0,0,0,0,0,0,0,0,0,0,-0.0746,-0.0766,-0.0719,-0.0703,-0.0701,-0.0696,-0.0696,-0.0696,-0.0672,-0.0671,-0.067,-0.067,-0.0644,-0.0643,-0.0643,-0.0652,0,0,-0.0641,-0.0641,0,0,0,0,0,0,0,0,-0.0747,-0.0744,-0.0706,-0.0704,-0.0702,-0.0685,-0.0703,-0.0681,-0.0672,-0.0684,-0.067,-0.0669,-0.0657,-0.0656,-0.0654,-0.0651,-0.065,-0.0641,-0.0641,-0.0641,-0.0641,0,0,0,0,0,0,0,-0.0749,-0.0745,-0.0711,-0.0706,-0.0703,-0.0706,-0.0702,-0.0699,-0.0675,-0.0683,-0.0681,-0.0677,-0.0656,-0.0654,-0.0653,-0.0649,-0.0641,-0.0641,-0.064,-0.064,-0.0595,-0.0594,0,0,0,0,0,0,-0.0749,-0.0747,-0.0712,-0.071,-0.0723,-0.0705,-0.0701,-0.0692,-0.0675,-0.0671,-0.0678,-0.0676,-0.0655,-0.0653,-0.0652,-0.0598,-0.0641,-0.064,-0.064,-0.0596,-0.0595,-0.0594,0,0,0,0,0,0,-0.075,-0.0746,-0.0712,-0.0728,-0.0723,-0.0705,-0.0695,-0.0692,-0.0675,-0.0671,-0.0667,-0.0662,-0.0655,-0.0652,-0.0636,-0.0599,-0.064,-0.064,-0.0597,-0.0596,-0.0594,-0.0532,0,0,0,0,0,0,-0.0752,-0.0747,-0.0737,-0.0728,-0.0723,-0.0695,-0.0696,-0.0692,-0.0674,-0.0672,-0.0657,-0.0654,-0.0654,-0.0637,-0.0636,-0.0599,-0.0639,-0.0598,-0.0596,-0.0595,-0.0535,-0.0529,-0.0523,0,0,0,0,0,-0.0754,-0.0737,-0.0736,-0.0732,-0.071,-0.0694,-0.0691,-0.0677,-0.0674,-0.0661,-0.0654,-0.0654,-0.0625,-0.0636,-0.0635,-0.0597,-0.0599,-0.0597,-0.0595,-0.0538,-0.053,-0.0523,0,0,0,0,0,0,-0.075,-0.0733,-0.0731,-0.071,-0.0699,-0.0689,-0.0673,-0.0671,-0.0656,-0.0649,-0.065,-0.0647,-0.0616,-0.0623,-0.0635,-0.0581,-0.0609,-0.0607,-0.0566,-0.0559,-0.0553,-0.0529,-0.0639,0,0,0,0,0,-0.0747,-0.0728,-0.0719,-0.0699,-0.0692,-0.0683,-0.0674,-0.0665,-0.0653,-0.0645,-0.0634,-0.0623,-0.061,-0.0597,-0.0589,-0.0565,-0.055,-0.0539,-0.0533,-0.0528,-0.0508,-0.0475,-0.0463,-0.0587,-0.0587,-0.0587,0,0,-0.0739,-0.0727,-0.0716,-0.0697,-0.0686,-0.0661,-0.0675,-0.0652,-0.0624,-0.0646,-0.0601,-0.0603,-0.0601,-0.0568,-0.0554,-0.0566,-0.0481,-0.0525,-0.0521,-0.0503,-0.0471,-0.0459,-0.0448,-0.0586,-0.0586,-0.0586,0,0,-0.0714,-0.0704,-0.0681,-0.0666,-0.0645,-0.0637,-0.0628,-0.061,-0.0594,-0.0565,-0.0568,-0.0548,-0.053,-0.0514,-0.0506,-0.0464,-0.0453,-0.0461,-0.0404,-0.0373,-0.0362,-0.0352,-0.0297,-0.0283,-0.0455,-0.0454,-0.0454,0,-0.0706,-0.0673,-0.0671,-0.0643,-0.0619,-0.0622,-0.0586,-0.0573,-0.0549,-0.0528,-0.0539,-0.0497,-0.0497,-0.0452,-0.0433,-0.0446,-0.0422,-0.0432,-0.0363,-0.0353,-0.0344,-0.0291,-0.0276,-0.0451,-0.0452,-0.0452,-0.0452,0,-0.0663,-0.0633,-0.0615,-0.0576,-0.0553,-0.0523,-0.0504,-0.0476,-0.0461,-0.0448,-0.0403,-0.0408,-0.0377,-0.0377,-0.0389,-0.0324,-0.0323,-0.0362,-0.0378,-0.0328,-0.0275,-0.026,-0.0447,-0.0448,-0.0449,-0.0449,0,0,-0.0649,-0.0597,-0.0585,-0.0555,-0.0512,-0.0488,-0.0436,-0.0391,-0.0349,-0.0335,-0.0278,-0.0262,-0.0265,-0.0257,-0.0271,-0.0245,-0.016,-0.0268,-0.0268,-0.0205,-0.0063,0.0036,0.0061,-0.0187,-0.0185,-0.0183,-0.0044,0,-0.0611,-0.0548,-0.0526,-0.0455,-0.042,-0.0394,-0.0343,-0.0303,-0.0274,-0.0224,-0.0222,-0.0179,-0.022,-0.0198,-0.0178,-0.0169,-0.0123,-0.0193,-0.0127,-0.0124,-0.0037,0.0081,-0.0123,-0.0006,-0.003,-0.0027,-0.0026,0,-0.0568,-0.0531,-0.046,-0.0388,-0.0368,-0.0325,-0.0238,-0.0196,-0.0137,-0.0111,-0.0074,-0.0074,-0.0023,-0.0076,-0.001,-0.0052,-0.0036,-0.0036,-0.0032,0.0051,0.0003,-0.0065,0.002,-0.0002,-0.0004,-0.0006,-0.0007,0,-0.0549,-0.0478,-0.0418,-0.0393,-0.0319,-0.0272,-0.0227,-0.0158,-0.0107,-0.0033,0.0018,0.0051,0.0096,0.0102,0.0121,0.0063,0.0197,0.0108,0.0218,0.0224,0.0064,0.0054,0.0176,0.0176,0.0176,0.0175,0.0175,0,-0.0512,-0.0458,-0.0406,-0.0369,-0.0291,-0.0246,-0.0155,-0.0104,-0.0024,0.0053,0.0077,0.0154,0.0144,0.0211,0.0188,0.0288,0.0261,0.028,0.0285,0.0084,0.0075,0.007,0.0056,0.0181,0.0179,0.0178,0.0177,0,-0.0485,-0.0452,-0.0381,-0.0304,-0.0277,-0.0218,-0.0114,-0.0049,0.0027,0.0133,0.0169,0.0264,0.0379,0.0391,0.0437,0.0416,0.0461,0.0497,0.0292,0.0274,0.0443,0.043,0.0633,0.0638,0.0642,0.0646,0.0649,0,-0.0464,-0.0427,-0.0342,-0.0297,-0.0256,-0.0173,-0.0109,-0.0028,0.0043,0.0205,0.0264,0.0421,0.0529,0.0672,0.0645,0.0685,0.065,0.055,0.041,0.0515,0.0498,0.0478,0.046,0.0207,0.0206,0.0205,0.0205,0,-0.0422,-0.0391,-0.0335,-0.0254,-0.0184,-0.0111,-0.0017,0.0037,0.0147,0.0247,0.0407,0.051,0.0666,0.0654,0.0744,0.0701,0.0523,0.0547,0.0702,0.0155,0.0134,0.0111,0.0102,0.0198,0.0199,0.02,0.02,0.02,-0.0388,-0.0345,-0.0278,-0.0197,-0.013,-0.0055,0.0005,0.0096,0.0204,0.032,0.0435,0.0537,0.0509,0.059,0.0606,0.0603,0.0635,0.049,0.0482,0.0476,0.0435,0.0426,0.0538,0.054,0.0543,0.0544,0.0546,0,-0.0347,-0.0294,-0.0222,-0.0135,-0.0072,-0.0033,0.0065,0.0103,0.021,0.0291,0.0398,0.035,0.0351,0.0406,0.039,0.0419,0.0293,0.0385,0.0152,0.0156,0.0161,0.0095,0.0112,0.0113,0.0113,0.0113,0,0,-0.0318,-0.0244,-0.0208,-0.0103,-0.0043,0.0036,0.0087,0.0129,0.0173,0.0246,0.0274,0.0238,0.0306,0.0173,0.0149,0.0163,0.0153,0.0128,0.0446,0.0168,0.0173,0.0169,0.0069,0,0,0,0,0]},{"header":{"parameterUnit":"m.s-1","parameterCategory":2,"la1":30.2991,"la2":30.254,"lo1":-89.0895,"lo2":-89.0444,"dy":0.0017,"dx":0.0017,"nx":28,"ny":28,"refTime":"2023-11-07T03:00:00:Z","depth":"2","parameterNumber":3,"parameterNumberName":"V-component_of_CURRENTS"},"data":[0,0,0,0,0,0,0,0,0,0,0,0,0,0,0,0,0,0,0,0,0,0,0,0,0,0,0,0,0,0,0,0,0,0,0,0,0,0,0,0,0,0,0,0,0,0,0,0,0,0,0,0,0,0,0,0,0,0,0.0407,0.0407,0,0.039,0.0389,0.0389,0.0329,0.0327,0.0326,0.0325,0.0246,0.0245,0.0244,0,0,0,0,0,0,0,0,0,0,0,0,0,0.0414,0.0414,0.0407,0.0407,0.0407,0.039,0.0389,0.0389,0.0329,0.0327,0.0326,0.0324,0.0246,0.0245,0.0244,0,0,0,0,0,0,0,0,0,0,0,0,0,0.0405,0.0414,0.0407,0.0374,0.0371,0.039,0.0389,0.0389,0.0329,0.0327,0.0325,0.0323,0.0247,0.0245,0.0244,0.0278,0,0,0.024,0.024,0,0,0,0,0,0,0,0,0.0406,0.0405,0.038,0.0377,0.0373,0.0359,0.0363,0.0349,0.033,0.0346,0.0325,0.0322,0.0279,0.0275,0.0278,0.0275,0.0271,0.024,0.024,0.0239,0.0239,0,0,0,0,0,0,0,0.0406,0.0406,0.0401,0.0379,0.0376,0.0369,0.0365,0.036,0.0324,0.0344,0.034,0.0338,0.0277,0.0279,0.0276,0.027,0.024,0.0239,0.0239,0.0238,0.023,0.023,0,0,0,0,0,0,0.0409,0.0406,0.0401,0.04,0.0384,0.037,0.0366,0.0366,0.0325,0.0317,0.034,0.0335,0.0283,0.0277,0.0272,0.024,0.0239,0.0238,0.0237,0.0229,0.023,0.0231,0,0,0,0,0,0,0.0409,0.0409,0.0402,0.0402,0.0401,0.0372,0.0373,0.0367,0.0345,0.0322,0.0312,0.0321,0.0281,0.0274,0.0256,0.0238,0.0237,0.0236,0.0229,0.023,0.023,0.0219,0,0,0,0,0,0,0.041,0.0409,0.0406,0.0403,0.0401,0.04,0.0374,0.0368,0.0349,0.0342,0.0304,0.0296,0.0279,0.0258,0.0255,0.0237,0.0235,0.0228,0.0229,0.023,0.0219,0.0219,0.022,0,0,0,0,0,0.041,0.0411,0.0406,0.0405,0.0399,0.04,0.0399,0.0372,0.035,0.0344,0.032,0.0295,0.0261,0.0258,0.0254,0.0235,0.0228,0.0229,0.023,0.0219,0.0219,0.022,0,0,0,0,0,0,0.0407,0.0405,0.0399,0.0398,0.0395,0.0389,0.0378,0.0367,0.0347,0.0329,0.0306,0.0297,0.0276,0.0267,0.0264,0.0239,0.0239,0.024,0.0232,0.0233,0.0233,0.0214,0.0234,0,0,0,0,0,0.0409,0.0406,0.0408,0.0403,0.0401,0.039,0.0385,0.0369,0.0354,0.0341,0.0317,0.0295,0.0286,0.0266,0.0259,0.0246,0.0229,0.0233,0.0233,0.0234,0.0218,0.0189,0.0185,0.0234,0.0234,0.0234,0,0,0.0404,0.0404,0.04,0.0402,0.0394,0.0391,0.038,0.0366,0.0356,0.0338,0.0307,0.0298,0.0287,0.027,0.0259,0.0252,0.0215,0.0235,0.0235,0.0219,0.019,0.0185,0.018,0.0235,0.0235,0.0235,0,0,0.0396,0.0394,0.0389,0.0389,0.0381,0.0379,0.0373,0.0361,0.0345,0.033,0.0315,0.0296,0.0276,0.0262,0.0255,0.0258,0.0226,0.0254,0.0226,0.0199,0.0194,0.0189,0.0172,0.0166,0.0244,0.0244,0.0244,0,0.0384,0.0384,0.0388,0.0384,0.0378,0.0372,0.0363,0.0358,0.0339,0.0327,0.0313,0.0283,0.0271,0.0252,0.0246,0.0254,0.0235,0.0221,0.0197,0.0192,0.0187,0.0171,0.0164,0.0244,0.0244,0.0244,0.0244,0,0.0378,0.0373,0.0368,0.0362,0.0361,0.0351,0.0349,0.0338,0.0317,0.0307,0.028,0.0268,0.0243,0.0243,0.0238,0.0204,0.0201,0.0207,0.0189,0.0181,0.0165,0.0158,0.0243,0.0243,0.0244,0.0244,0,0,0.0348,0.0361,0.0353,0.0354,0.0345,0.0346,0.0331,0.0321,0.0308,0.0281,0.0257,0.0236,0.0217,0.0208,0.0203,0.0173,0.013,0.0164,0.0163,0.0135,0.0066,0.0111,0.0108,0.0122,0.012,0.0119,0.0072,0,0.0331,0.0331,0.0337,0.0327,0.0327,0.0323,0.0316,0.0305,0.029,0.027,0.0244,0.0224,0.021,0.0193,0.0159,0.0143,0.0108,0.0142,0.0088,0.0086,0.0117,0.01,0.0084,0.0044,0.0065,0.0064,0.0063,0,0.031,0.0318,0.031,0.0321,0.0318,0.0309,0.0296,0.029,0.0269,0.0255,0.0218,0.0203,0.0157,0.0151,0.0084,0.0101,0.0072,0.0057,0.0055,0.009,0.0118,0.0055,0.003,0.0052,0.0053,0.0053,0.0054,0,0.0288,0.0293,0.0288,0.0288,0.03,0.0288,0.0286,0.0273,0.0278,0.0237,0.0233,0.0174,0.0154,0.0094,0.0057,0.0059,-0.0008,-0.0002,0.001,0.0014,-0.0014,-0.001,-0.0061,-0.0061,-0.0061,-0.006,-0.006,0,0.0267,0.026,0.0277,0.0274,0.0277,0.0277,0.0271,0.0264,0.0257,0.027,0.0218,0.0223,0.0135,0.0097,0.0047,0.0009,-0.002,-0.0006,-0.0002,-0.0014,-0.001,-0.0014,-0.0008,-0.0062,-0.0062,-0.0061,-0.0061,0,0.0239,0.0246,0.0251,0.0262,0.0267,0.0264,0.0283,0.0295,0.0274,0.0288,0.0275,0.0246,0.0197,0.0125,0.0045,0.0018,-0.0032,-0.0037,-0.0038,-0.0033,0.0008,0.0014,-0.0039,-0.0038,-0.0037,-0.0036,-0.0035,0,0.0228,0.0225,0.0245,0.0264,0.0266,0.0273,0.0297,0.0296,0.0321,0.0321,0.0342,0.0294,0.0307,0.0208,0.012,0.0036,-0.0002,-0.0036,-0.003,-0.0002,0.0007,0.0012,0.0017,-0.0075,-0.0074,-0.0074,-0.0074,0,0.0219,0.0216,0.0235,0.0275,0.0299,0.0338,0.0366,0.0391,0.0403,0.0428,0.0469,0.0478,0.0388,0.0295,0.0168,0.0114,-0.0026,-0.003,-0.0029,-0.0057,-0.0034,-0.0025,-0.002,-0.0072,-0.0072,-0.0072,-0.0072,-0.0073,0.0218,0.0234,0.0266,0.0304,0.0344,0.0407,0.0446,0.0497,0.0556,0.0588,0.059,0.0548,0.0397,0.0226,0.0157,0.0047,0.0061,-0.0022,-0.0024,-0.0026,-0.0002,0.0023,0.0001,0.0001,0.0001,0.0001,0.0001,0,0.0239,0.0264,0.0305,0.0367,0.0427,0.0435,0.051,0.0559,0.0648,0.0628,0.0673,0.0446,0.0378,0.0196,0.0065,0.0031,0.0016,-0.0024,-0.0063,-0.0064,-0.0065,-0.0044,-0.0052,-0.0052,-0.0053,-0.0053,0,0,0.0257,0.0298,0.0325,0.0432,0.0479,0.0562,0.0609,0.0681,0.0678,0.062,0.0514,0.0505,0.0296,0.0154,0.0086,0.0017,-0.0,0.001,0.0057,0.0022,0.0022,-0.0063,-0.0031,0,0,0,0,0]}],[{"header":{"parameterUnit":"m.s-1","parameterCategory":2,"la1":30.2991,"la2":30.254,"lo1":-89.0895,"lo2":-89.0444,"dy":0.0017,"dx":0.0017,"nx":28,"ny":28,"refTime":"2023-11-07T03:00:00:Z","depth":"4","parameterNumber":2,"parameterNumberName":"U-component_of_CURRENTS"},"data":[0,0,0,0,0,0,0,0,0,0,0,0,0,0,0,0,0,0,0,0,0,0,0,0,0,0,0,0,0,0,0,0,0,0,0,0,0,0,0,0,0,0,0,0,0,0,0,0,0,0,0,0,0,0,0,0,0,0,-0.0254,-0.0254,0,-0.027,-0.0271,-0.0271,-0.031,-0.0311,-0.0312,-0.0312,-0.0347,-0.0347,-0.0347,0,0,0,0,0,0,0,0,0,0,0,0,0,-0.0272,-0.0272,-0.0254,-0.0254,-0.0254,-0.027,-0.0271,-0.0271,-0.031,-0.0311,-0.0312,-0.0312,-0.0347,-0.0347,-0.0347,0,0,0,0,0,0,0,0,0,0,0,0,0,-0.0277,-0.0272,-0.0254,-0.0273,-0.0275,-0.027,-0.0271,-0.0271,-0.031,-0.0311,-0.0312,-0.0313,-0.0346,-0.0347,-0.0348,-0.0335,0,0,-0.0349,-0.035,0,0,0,0,0,0,0,0,-0.0277,-0.0277,-0.027,-0.0272,-0.0274,-0.0286,-0.029,-0.0292,-0.031,-0.03,-0.0312,-0.0313,-0.0326,-0.0328,-0.0333,-0.0337,-0.0338,-0.035,-0.035,-0.035,-0.035,0,0,0,0,0,0,0,-0.0276,-0.0276,-0.0264,-0.027,-0.0272,-0.0286,-0.0288,-0.0291,-0.0311,-0.0301,-0.0303,-0.03,-0.0327,-0.0333,-0.0334,-0.0339,-0.035,-0.035,-0.035,-0.0351,-0.0412,-0.0413,0,0,0,0,0,0,-0.0266,-0.0276,-0.0263,-0.0264,-0.0274,-0.0285,-0.0287,-0.0284,-0.031,-0.0314,-0.0299,-0.0301,-0.0331,-0.0334,-0.0336,-0.0373,-0.035,-0.0351,-0.0351,-0.0411,-0.0412,-0.0414,0,0,0,0,0,0,-0.0266,-0.0265,-0.0262,-0.0268,-0.0268,-0.0283,-0.028,-0.0284,-0.0307,-0.0308,-0.0313,-0.0319,-0.0332,-0.0335,-0.0359,-0.0373,-0.0351,-0.0352,-0.0409,-0.0411,-0.0413,-0.0416,0,0,0,0,0,0,-0.0267,-0.0265,-0.0265,-0.0267,-0.0267,-0.0268,-0.0279,-0.0283,-0.0301,-0.0305,-0.0327,-0.033,-0.0333,-0.0358,-0.036,-0.0374,-0.0352,-0.0408,-0.041,-0.0412,-0.0414,-0.0418,-0.0421,0,0,0,0,0,-0.0268,-0.0262,-0.0265,-0.0263,-0.0265,-0.0267,-0.027,-0.0285,-0.0301,-0.031,-0.0333,-0.033,-0.0375,-0.0359,-0.0361,-0.0375,-0.0406,-0.0409,-0.0412,-0.0413,-0.0417,-0.0421,0,0,0,0,0,0,-0.0272,-0.0265,-0.0268,-0.0262,-0.0267,-0.0273,-0.0278,-0.0293,-0.0318,-0.0328,-0.0338,-0.0343,-0.0365,-0.0376,-0.0359,-0.0404,-0.0393,-0.0396,-0.0393,-0.0397,-0.0401,-0.0383,-0.0353,0,0,0,0,0,-0.027,-0.0265,-0.0264,-0.0261,-0.0262,-0.0274,-0.028,-0.0293,-0.0309,-0.0322,-0.0343,-0.0366,-0.0375,-0.0392,-0.0399,-0.0423,-0.0413,-0.0438,-0.0442,-0.0444,-0.0433,-0.0435,-0.0437,-0.0423,-0.0423,-0.0423,0,0,-0.0272,-0.0266,-0.0265,-0.0262,-0.0267,-0.0271,-0.0282,-0.0293,-0.0304,-0.032,-0.0354,-0.037,-0.0381,-0.0405,-0.0418,-0.042,-0.0444,-0.0448,-0.0449,-0.0437,-0.0438,-0.0439,-0.044,-0.0425,-0.0424,-0.0424,0,0,-0.027,-0.0267,-0.0264,-0.0267,-0.0272,-0.0277,-0.0284,-0.0305,-0.0321,-0.0348,-0.0362,-0.0382,-0.0417,-0.0421,-0.0427,-0.0453,-0.0451,-0.0477,-0.0488,-0.049,-0.049,-0.049,-0.0478,-0.0477,-0.0491,-0.0491,-0.0491,0,-0.0275,-0.0266,-0.0266,-0.0265,-0.0268,-0.0282,-0.0288,-0.03,-0.0333,-0.0342,-0.0362,-0.04,-0.0413,-0.0422,-0.0445,-0.0454,-0.0462,-0.0468,-0.0491,-0.0491,-0.0491,-0.0478,-0.0477,-0.0491,-0.0491,-0.0491,-0.0491,0,-0.0271,-0.0268,-0.0266,-0.0268,-0.0276,-0.028,-0.0292,-0.0311,-0.0337,-0.0351,-0.0374,-0.0394,-0.042,-0.0435,-0.0451,-0.0468,-0.0475,-0.0482,-0.0473,-0.0492,-0.0478,-0.0477,-0.0492,-0.0492,-0.0492,-0.0491,0,0,-0.0271,-0.0264,-0.0265,-0.0264,-0.0277,-0.0281,-0.0296,-0.0306,-0.0315,-0.035,-0.0361,-0.039,-0.0414,-0.0422,-0.0446,-0.0459,-0.0471,-0.049,-0.049,-0.0463,-0.048,-0.0398,-0.0389,-0.0498,-0.0498,-0.0498,-0.0469,0,-0.0269,-0.0264,-0.0265,-0.0269,-0.0269,-0.0281,-0.029,-0.0306,-0.0326,-0.0343,-0.0355,-0.0377,-0.0405,-0.043,-0.0446,-0.0465,-0.047,-0.0478,-0.0478,-0.0478,-0.039,-0.0385,-0.0498,-0.0468,-0.0467,-0.0467,-0.0467,0,-0.0265,-0.026,-0.0262,-0.0261,-0.0263,-0.0269,-0.0282,-0.0294,-0.031,-0.033,-0.0352,-0.0373,-0.0395,-0.0417,-0.0439,-0.0455,-0.047,-0.0476,-0.0475,-0.0392,-0.0393,-0.0448,-0.0464,-0.0464,-0.0464,-0.0465,-0.0465,0,-0.0262,-0.0257,-0.0257,-0.0258,-0.0264,-0.0266,-0.0273,-0.0291,-0.0296,-0.0326,-0.0334,-0.0364,-0.0378,-0.0404,-0.0416,-0.0452,-0.0416,-0.0461,-0.0386,-0.0381,-0.0461,-0.0461,-0.0458,-0.0458,-0.0458,-0.0458,-0.0458,0,-0.0254,-0.0252,-0.0251,-0.0251,-0.0247,-0.026,-0.0261,-0.0275,-0.0288,-0.0286,-0.0332,-0.0324,-0.0383,-0.0371,-0.0398,-0.0363,-0.0397,-0.0369,-0.0363,-0.0465,-0.0466,-0.046,-0.046,-0.0457,-0.0457,-0.0458,-0.0458,0,-0.0249,-0.0249,-0.0245,-0.0247,-0.0244,-0.0245,-0.0244,-0.0243,-0.0265,-0.0261,-0.0273,-0.0299,-0.0294,-0.0301,-0.0321,-0.0319,-0.0303,-0.0277,-0.0352,-0.0352,-0.0281,-0.0283,-0.0224,-0.0221,-0.0218,-0.0216,-0.0214,0,-0.0244,-0.0245,-0.0242,-0.0233,-0.0231,-0.0227,-0.022,-0.0234,-0.0229,-0.0231,-0.022,-0.0217,-0.0229,-0.0174,-0.0201,-0.0197,-0.0201,-0.019,-0.0273,-0.0255,-0.0255,-0.0261,-0.0266,-0.0209,-0.0209,-0.0208,-0.0207,0,-0.0239,-0.0243,-0.024,-0.0223,-0.0211,-0.0192,-0.018,-0.0168,-0.0178,-0.0195,-0.0168,-0.016,-0.0128,-0.014,-0.0106,-0.0114,-0.0204,-0.0163,-0.0171,-0.0249,-0.0237,-0.0241,-0.0249,-0.0198,-0.0199,-0.02,-0.0201,0,-0.0237,-0.0231,-0.0228,-0.0208,-0.0189,-0.0154,-0.015,-0.0129,-0.0124,-0.0128,-0.011,-0.0104,-0.0118,-0.0091,-0.0062,-0.0049,-0.0089,-0.0116,-0.0128,-0.0138,-0.0121,-0.0094,0.0011,0,0,0,0,0,-0.0232,-0.0221,-0.0207,-0.0177,-0.0156,-0.014,-0.0121,-0.0118,-0.0116,-0.0092,-0.0103,-0.0075,-0.0048,-0.0043,-0.0019,-0.0029,-0.0084,0.0,-0.0121,-0.0145,-0.0156,-0.0143,0,0,0,0,0,0,-0.0224,-0.0218,-0.0205,-0.0154,-0.0125,-0.0094,-0.0078,-0.0076,-0.0061,-0.0068,-0.0056,-0.0066,-0.0043,-0.0063,-0.0019,-0.0015,-0.0087,0.0003,0.0004,-0.0139,-0.0149,-0.0158,-0.0148,0,0,0,0,0]},{"header":{"parameterUnit":"m.s-1","parameterCategory":2,"la1":30.2991,"la2":30.254,"lo1":-89.0895,"lo2":-89.0444,"dy":0.0017,"dx":0.0017,"nx":28,"ny":28,"refTime":"2023-11-07T03:00:00:Z","depth":"4","parameterNumber":3,"parameterNumberName":"V-component_of_CURRENTS"},"data":[0,0,0,0,0,0,0,0,0,0,0,0,0,0,0,0,0,0,0,0,0,0,0,0,0,0,0,0,0,0,0,0,0,0,0,0,0,0,0,0,0,0,0,0,0,0,0,0,0,0,0,0,0,0,0,0,0,0,-0.0129,-0.0129,0,-0.0159,-0.016,-0.016,-0.0184,-0.0184,-0.0184,-0.0184,-0.0202,-0.0202,-0.0202,0,0,0,0,0,0,0,0,0,0,0,0,0,-0.0099,-0.01,-0.0129,-0.0129,-0.0129,-0.0159,-0.016,-0.0161,-0.0184,-0.0184,-0.0184,-0.0184,-0.0201,-0.0202,-0.0202,0,0,0,0,0,0,0,0,0,0,0,0,0,-0.0121,-0.01,-0.0129,-0.0143,-0.0144,-0.0159,-0.016,-0.0161,-0.0184,-0.0184,-0.0184,-0.0184,-0.0201,-0.0202,-0.0202,-0.0206,0,0,-0.0204,-0.0205,0,0,0,0,0,0,0,0,-0.012,-0.0123,-0.0141,-0.0142,-0.0144,-0.0166,-0.0156,-0.0174,-0.0184,-0.0171,-0.0184,-0.0184,-0.0187,-0.0189,-0.0198,-0.0206,-0.0207,-0.0205,-0.0205,-0.0205,-0.0205,0,0,0,0,0,0,0,-0.0118,-0.0121,-0.0143,-0.0141,-0.0143,-0.0151,-0.0154,-0.016,-0.018,-0.0172,-0.0174,-0.0174,-0.0188,-0.0197,-0.0198,-0.0207,-0.0205,-0.0205,-0.0205,-0.0206,-0.0248,-0.0249,0,0,0,0,0,0,-0.011,-0.012,-0.0142,-0.0144,-0.0129,-0.0151,-0.0155,-0.0161,-0.018,-0.0183,-0.0174,-0.0175,-0.0196,-0.0197,-0.0199,-0.0228,-0.0205,-0.0206,-0.0206,-0.0247,-0.0248,-0.0249,0,0,0,0,0,0,-0.0109,-0.0112,-0.0141,-0.0131,-0.0134,-0.0151,-0.0158,-0.0161,-0.0186,-0.0181,-0.0184,-0.0196,-0.0196,-0.0198,-0.0223,-0.0228,-0.0206,-0.0207,-0.0247,-0.0248,-0.0249,-0.0271,0,0,0,0,0,0,-0.0109,-0.0112,-0.0119,-0.013,-0.0135,-0.0157,-0.0157,-0.0162,-0.0184,-0.0186,-0.0201,-0.0202,-0.0196,-0.0222,-0.0224,-0.0228,-0.0207,-0.0246,-0.0247,-0.0248,-0.0269,-0.0273,-0.0275,0,0,0,0,0,-0.0108,-0.0116,-0.0119,-0.0122,-0.0142,-0.0158,-0.0162,-0.0174,-0.0185,-0.0198,-0.0214,-0.0202,-0.0231,-0.0224,-0.0225,-0.023,-0.0245,-0.0247,-0.0248,-0.0268,-0.0272,-0.0275,0,0,0,0,0,0,-0.0108,-0.012,-0.0123,-0.0135,-0.0148,-0.0161,-0.0173,-0.0186,-0.021,-0.0215,-0.0218,-0.022,-0.0241,-0.0238,-0.0229,-0.0247,-0.0234,-0.0236,-0.0248,-0.0252,-0.0255,-0.0248,-0.0208,0,0,0,0,0,-0.011,-0.0121,-0.0131,-0.0143,-0.0149,-0.0166,-0.0177,-0.0187,-0.0204,-0.0216,-0.0231,-0.0241,-0.0247,-0.0252,-0.0259,-0.0273,-0.0258,-0.0276,-0.0279,-0.0282,-0.0278,-0.0267,-0.0268,-0.0255,-0.0255,-0.0254,0,0,-0.0113,-0.0121,-0.0128,-0.0144,-0.0155,-0.0168,-0.0174,-0.0193,-0.0207,-0.0213,-0.0247,-0.0257,-0.0255,-0.027,-0.0278,-0.0269,-0.0278,-0.0284,-0.0286,-0.028,-0.0268,-0.027,-0.0271,-0.0256,-0.0255,-0.0255,0,0,-0.012,-0.0133,-0.0142,-0.0153,-0.0169,-0.0179,-0.0189,-0.0214,-0.0229,-0.0259,-0.0264,-0.028,-0.03,-0.0295,-0.0293,-0.0319,-0.0298,-0.0324,-0.0331,-0.0321,-0.0321,-0.0322,-0.0304,-0.0302,-0.0322,-0.0322,-0.0322,0,-0.012,-0.0134,-0.0148,-0.0158,-0.0168,-0.0187,-0.0199,-0.0216,-0.025,-0.0264,-0.0271,-0.0303,-0.0305,-0.031,-0.0319,-0.0323,-0.0315,-0.0315,-0.0323,-0.0323,-0.0323,-0.0305,-0.0303,-0.0324,-0.0323,-0.0323,-0.0323,0,-0.0132,-0.0144,-0.0151,-0.0169,-0.0185,-0.0199,-0.0218,-0.0241,-0.0265,-0.0283,-0.031,-0.0317,-0.0333,-0.0335,-0.0335,-0.0338,-0.0332,-0.033,-0.0311,-0.0326,-0.0306,-0.0303,-0.0325,-0.0325,-0.0325,-0.0324,0,0,-0.0127,-0.0152,-0.0155,-0.0164,-0.0191,-0.0205,-0.0228,-0.0252,-0.0271,-0.0302,-0.0324,-0.0337,-0.0351,-0.0349,-0.0351,-0.0343,-0.0337,-0.0341,-0.034,-0.0317,-0.0313,-0.0299,-0.0295,-0.0341,-0.034,-0.034,-0.0298,0,-0.0129,-0.0145,-0.0161,-0.0182,-0.0194,-0.0216,-0.0234,-0.0262,-0.0289,-0.0318,-0.0326,-0.0348,-0.0352,-0.0361,-0.0356,-0.0346,-0.0332,-0.0348,-0.0306,-0.0304,-0.0286,-0.0292,-0.034,-0.0296,-0.0295,-0.0295,-0.0295,0,-0.0134,-0.0143,-0.016,-0.0186,-0.0194,-0.0211,-0.0245,-0.0265,-0.0301,-0.0323,-0.0346,-0.0362,-0.0365,-0.0362,-0.0342,-0.0356,-0.0336,-0.0321,-0.0319,-0.0295,-0.0287,-0.0278,-0.029,-0.029,-0.0291,-0.0291,-0.0291,0,-0.0124,-0.0145,-0.0158,-0.0168,-0.0199,-0.0212,-0.0232,-0.027,-0.0288,-0.0328,-0.0344,-0.0361,-0.0362,-0.0349,-0.0331,-0.0339,-0.0299,-0.0302,-0.0264,-0.0262,-0.0276,-0.0276,-0.0274,-0.0274,-0.0274,-0.0274,-0.0274,0,-0.0122,-0.0134,-0.0154,-0.0162,-0.0181,-0.0208,-0.0235,-0.0259,-0.029,-0.0309,-0.0346,-0.0349,-0.0359,-0.0345,-0.0329,-0.0289,-0.0295,-0.0261,-0.0251,-0.0287,-0.0289,-0.0274,-0.0274,-0.0272,-0.0273,-0.0273,-0.0273,0,-0.0119,-0.0129,-0.0144,-0.0169,-0.0178,-0.0195,-0.0232,-0.025,-0.028,-0.03,-0.0311,-0.0336,-0.0317,-0.0314,-0.0284,-0.0276,-0.0245,-0.0224,-0.0257,-0.025,-0.0214,-0.0217,-0.0181,-0.018,-0.0179,-0.0179,-0.0178,0,-0.0121,-0.0126,-0.0146,-0.0155,-0.0168,-0.0194,-0.0212,-0.0246,-0.0262,-0.0283,-0.0286,-0.0282,-0.0292,-0.024,-0.0239,-0.0206,-0.0199,-0.0191,-0.0211,-0.0211,-0.0205,-0.0208,-0.0212,-0.0177,-0.0177,-0.0177,-0.0177,0,-0.0124,-0.0128,-0.014,-0.0152,-0.017,-0.0192,-0.0216,-0.0223,-0.0253,-0.0266,-0.0257,-0.0252,-0.0227,-0.0216,-0.0194,-0.017,-0.0209,-0.0184,-0.0185,-0.0204,-0.0206,-0.0202,-0.0206,-0.0174,-0.0175,-0.0175,-0.0175,0,-0.0126,-0.0133,-0.0143,-0.0155,-0.0173,-0.0191,-0.0206,-0.0215,-0.0229,-0.0242,-0.0227,-0.022,-0.0216,-0.0194,-0.0171,-0.0155,-0.0151,-0.0158,-0.016,-0.0163,-0.0179,-0.0181,-0.0128,0,0,0,0,0,-0.0131,-0.0137,-0.0146,-0.0162,-0.0176,-0.0186,-0.0209,-0.0221,-0.0231,-0.0217,-0.0223,-0.0198,-0.0175,-0.017,-0.0147,-0.0162,-0.0156,-0.0137,-0.0166,-0.0161,-0.0164,-0.0186,0,0,0,0,0,0,-0.0136,-0.0144,-0.0145,-0.0162,-0.017,-0.0192,-0.0206,-0.0215,-0.0207,-0.0208,-0.0191,-0.0187,-0.0161,-0.0174,-0.0141,-0.0139,-0.0156,-0.0126,-0.0125,-0.0159,-0.0162,-0.0164,-0.0188,0,0,0,0,0]}]]